Time,TemperatureF,DewpointF,PressureIn,WindDirection,WindDirectionDegrees,WindSpeedMPH,WindSpeedGustMPH,Humidity,HourlyPrecipIn,Conditions,Clouds,dailyrainin,SoftwareType,DateUTC
2017-08-19 00:12:00,62.5,61.0,29.83,SW,232,0.0,-999.0,93,-99.99,,,0.00,weatherlink.com 1.10,2017-08-19 04:12:00,
2017-08-19 00:27:00,62.1,60.0,29.83,SW,232,0.0,-999.0,93,-99.99,,,0.00,weatherlink.com 1.10,2017-08-19 04:27:00,
2017-08-19 00:42:00,62.4,61.0,29.83,SW,232,2.0,-999.0,94,-99.99,,,0.00,weatherlink.com 1.10,2017-08-19 04:42:00,
2017-08-19 00:57:00,62.8,61.0,29.83,SW,232,0.0,-999.0,94,-99.99,,,0.00,weatherlink.com 1.10,2017-08-19 04:57:00,
2017-08-19 01:12:00,62.7,61.0,29.84,SW,221,4.0,-999.0,94,-99.99,,,0.00,weatherlink.com 1.10,2017-08-19 05:12:00,
2017-08-19 01:27:00,63.3,62.0,29.84,SW,228,4.0,-999.0,94,-99.99,,,0.00,weatherlink.com 1.10,2017-08-19 05:27:00,
2017-08-19 01:42:00,63.8,62.0,29.84,WSW,248,9.0,-999.0,94,-99.99,,,0.01,weatherlink.com 1.10,2017-08-19 05:42:00,
2017-08-19 01:57:00,63.6,62.0,29.84,WSW,240,4.0,-999.0,94,-99.99,,,0.01,weatherlink.com 1.10,2017-08-19 05:57:00,
2017-08-19 02:12:00,63.6,62.0,29.83,SW,221,2.0,-999.0,95,-99.99,,,0.01,weatherlink.com 1.10,2017-08-19 06:12:00,
2017-08-19 02:27:00,63.4,62.0,29.83,SW,221,0.0,-999.0,94,-99.99,,,0.01,weatherlink.com 1.10,2017-08-19 06:27:00,
2017-08-19 02:42:00,63.1,62.0,29.83,SW,221,0.0,-999.0,95,-99.99,,,0.01,weatherlink.com 1.10,2017-08-19 06:42:00,
2017-08-19 02:57:00,62.9,62.0,29.83,SW,221,3.0,-999.0,95,-99.99,,,0.01,weatherlink.com 1.10,2017-08-19 06:57:00,
2017-08-19 03:12:00,63.0,62.0,29.84,SW,221,0.0,-999.0,95,-99.99,,,0.01,weatherlink.com 1.10,2017-08-19 07:12:00,
2017-08-19 03:27:00,62.9,62.0,29.83,SW,221,0.0,-999.0,95,-99.99,,,0.01,weatherlink.com 1.10,2017-08-19 07:27:00,
2017-08-19 03:42:00,62.8,61.0,29.84,SW,221,4.0,-999.0,95,-99.99,,,0.01,weatherlink.com 1.10,2017-08-19 07:42:00,
2017-08-19 03:57:00,63.1,62.0,29.84,West,275,0.0,-999.0,95,-99.99,,,0.01,weatherlink.com 1.10,2017-08-19 07:57:00,
2017-08-19 04:12:00,62.6,61.0,29.84,West,275,0.0,-999.0,95,-99.99,,,0.01,weatherlink.com 1.10,2017-08-19 08:12:00,
2017-08-19 04:27:00,61.8,60.0,29.83,West,275,0.0,-999.0,95,-99.99,,,0.01,weatherlink.com 1.10,2017-08-19 08:27:00,
2017-08-19 04:42:00,61.3,60.0,29.84,West,275,0.0,-999.0,95,-99.99,,,0.01,weatherlink.com 1.10,2017-08-19 08:42:00,
2017-08-19 04:57:00,60.5,59.0,29.84,West,275,0.0,-999.0,95,-99.99,,,0.01,weatherlink.com 1.10,2017-08-19 08:57:00,
2017-08-19 05:12:00,59.6,58.0,29.83,West,275,0.0,-999.0,95,-99.99,,,0.01,weatherlink.com 1.10,2017-08-19 09:12:00,
2017-08-19 05:27:00,58.8,57.0,29.84,West,275,0.0,-999.0,95,-99.99,,,0.01,weatherlink.com 1.10,2017-08-19 09:27:00,
2017-08-19 05:42:00,58.4,57.0,29.84,West,275,0.0,-999.0,95,-99.99,,,0.01,weatherlink.com 1.10,2017-08-19 09:42:00,
2017-08-19 05:57:00,59.2,58.0,29.84,West,275,0.0,-999.0,96,-99.99,,,0.01,weatherlink.com 1.10,2017-08-19 09:57:00,
2017-08-19 06:12:00,59.2,58.0,29.85,West,275,0.0,-999.0,96,-99.99,,,0.01,weatherlink.com 1.10,2017-08-19 10:12:00,
2017-08-19 06:27:00,59.3,58.0,29.86,West,275,3.0,-999.0,96,-99.99,,,0.01,weatherlink.com 1.10,2017-08-19 10:27:00,
2017-08-19 06:42:00,60.3,59.0,29.86,West,275,0.0,-999.0,96,-99.99,,,0.01,weatherlink.com 1.10,2017-08-19 10:42:00,
2017-08-19 06:57:00,60.5,59.0,29.86,West,275,3.0,-999.0,96,-99.99,,,0.01,weatherlink.com 1.10,2017-08-19 10:57:00,
2017-08-19 07:12:00,59.9,59.0,29.87,West,275,0.0,-999.0,96,-99.99,,,0.01,weatherlink.com 1.10,2017-08-19 11:12:00,
2017-08-19 07:27:00,59.7,59.0,29.88,West,275,0.0,-999.0,96,-99.99,,,0.01,weatherlink.com 1.10,2017-08-19 11:27:00,
2017-08-19 07:42:00,59.9,59.0,29.88,West,275,0.0,-999.0,96,-99.99,,,0.01,weatherlink.com 1.10,2017-08-19 11:42:00,
2017-08-19 07:58:00,60.4,59.0,29.89,West,275,0.0,-999.0,96,-99.99,,,0.01,weatherlink.com 1.10,2017-08-19 11:58:00,
2017-08-19 08:13:00,60.7,60.0,29.89,West,275,0.0,-999.0,96,-99.99,,,0.01,weatherlink.com 1.10,2017-08-19 12:13:00,
2017-08-19 08:27:00,61.8,61.0,29.89,West,275,0.0,-999.0,96,-99.99,,,0.01,weatherlink.com 1.10,2017-08-19 12:27:00,
2017-08-19 08:42:00,62.9,62.0,29.89,West,275,0.0,-999.0,96,-99.99,,,0.01,weatherlink.com 1.10,2017-08-19 12:42:00,
2017-08-19 08:58:00,63.6,62.0,29.89,West,275,3.0,-999.0,94,-99.99,,,0.01,weatherlink.com 1.10,2017-08-19 12:58:00,
2017-08-19 09:13:00,64.4,62.0,29.90,West,275,4.0,-999.0,92,-99.99,,,0.01,weatherlink.com 1.10,2017-08-19 13:13:00,
2017-08-19 09:28:00,65.2,62.0,29.90,West,275,2.0,-999.0,89,-99.99,,,0.01,weatherlink.com 1.10,2017-08-19 13:28:00,
2017-08-19 09:43:00,65.8,62.0,29.90,WNW,302,5.0,-999.0,86,-99.99,,,0.01,weatherlink.com 1.10,2017-08-19 13:43:00,
2017-08-19 09:58:00,66.6,62.0,29.91,West,276,2.0,-999.0,84,-99.99,,,0.01,weatherlink.com 1.10,2017-08-19 13:58:00,
2017-08-19 10:13:00,67.0,61.0,29.91,NW,304,7.0,-999.0,82,-99.99,,,0.01,weatherlink.com 1.10,2017-08-19 14:13:00,
2017-08-19 10:28:00,67.7,62.0,29.91,West,270,6.0,-999.0,82,-99.99,,,0.01,weatherlink.com 1.10,2017-08-19 14:28:00,
2017-08-19 10:43:00,68.4,62.0,29.92,NW,314,2.0,-999.0,80,-99.99,,,0.01,weatherlink.com 1.10,2017-08-19 14:43:00,
2017-08-19 10:58:00,69.3,63.0,29.91,WSW,246,6.0,-999.0,79,-99.99,,,0.01,weatherlink.com 1.10,2017-08-19 14:58:00,
2017-08-19 11:13:00,69.7,62.0,29.91,WNW,290,2.0,-999.0,77,-99.99,,,0.01,weatherlink.com 1.10,2017-08-19 15:13:00,
2017-08-19 11:28:00,70.4,64.0,29.91,West,266,4.0,-999.0,80,-99.99,,,0.01,weatherlink.com 1.10,2017-08-19 15:28:00,
2017-08-19 11:43:00,70.4,63.0,29.91,West,259,7.0,-999.0,77,-99.99,,,0.01,weatherlink.com 1.10,2017-08-19 15:43:00,
2017-08-19 11:58:00,71.1,63.0,29.91,WNW,282,5.0,-999.0,76,-99.99,,,0.01,weatherlink.com 1.10,2017-08-19 15:58:00,
2017-08-19 12:13:00,71.4,62.0,29.91,West,271,9.0,-999.0,73,-99.99,,,0.01,weatherlink.com 1.10,2017-08-19 16:13:00,
2017-08-19 12:28:00,72.1,63.0,29.91,WSW,249,2.0,-999.0,72,-99.99,,,0.01,weatherlink.com 1.10,2017-08-19 16:28:00,
2017-08-19 12:43:00,72.8,63.0,29.91,WSW,245,6.0,-999.0,72,-99.99,,,0.01,weatherlink.com 1.10,2017-08-19 16:43:00,
2017-08-19 12:58:00,73.3,64.0,29.91,West,276,4.0,-999.0,72,-99.99,,,0.01,weatherlink.com 1.10,2017-08-19 16:58:00,
2017-08-19 13:13:00,73.8,64.0,29.91,SW,223,6.0,-999.0,71,-99.99,,,0.01,weatherlink.com 1.10,2017-08-19 17:13:00,
2017-08-19 13:28:00,74.0,63.0,29.91,WNW,288,5.0,-999.0,69,-99.99,,,0.01,weatherlink.com 1.10,2017-08-19 17:28:00,
2017-08-19 13:43:00,74.1,63.0,29.91,WNW,296,2.0,-999.0,68,-99.99,,,0.01,weatherlink.com 1.10,2017-08-19 17:43:00,
2017-08-19 13:58:00,75.1,65.0,29.91,West,259,2.0,-999.0,70,-99.99,,,0.01,weatherlink.com 1.10,2017-08-19 17:58:00,
2017-08-19 14:13:00,75.5,65.0,29.91,WNW,295,6.0,-999.0,69,-99.99,,,0.01,weatherlink.com 1.10,2017-08-19 18:13:00,
2017-08-19 14:28:00,75.3,64.0,29.91,SW,214,4.0,-999.0,68,-99.99,,,0.01,weatherlink.com 1.10,2017-08-19 18:28:00,
2017-08-19 14:43:00,75.7,66.0,29.91,West,267,8.0,-999.0,71,-99.99,,,0.01,weatherlink.com 1.10,2017-08-19 18:43:00,